[[{"header":{"parameterUnit":"m.s-1","parameterCategory":1,"la1":30.2991,"la2":30.254,"lo1":-89.0895,"lo2":-89.0444,"dy":0.0017,"dx":0.0017,"nx":28,"ny":28,"refTime":"2024-08-15T21:00:00:Z","depth":0,"parameterNumber":2,"parameterNumberName":"U-component_of_WINDS"},"data":[0,0,0,0,0,0,0,0,0,0,0,0,0,0,0,0,0,0,0,0,0,0,0,0,0,0,0,0,0,0,0,0,0,0,0,0,0,0,0,0,0,0,0,0,0,0,0,0,0,0,0,0,0,0,0,0,0,0,-0.17,-0.17,0,-0.1748,-0.1748,-0.1749,-0.182,-0.1822,-0.1823,-0.1824,-0.1869,-0.1869,-0.1869,0,0,0,0,0,0,0,0,0,0,0,0,0,-0.1668,-0.1668,-0.17,-0.17,-0.1701,-0.1747,-0.1748,-0.1749,-0.182,-0.1822,-0.1823,-0.1825,-0.1869,-0.1869,-0.1869,0,0,0,0,0,0,0,0,0,0,0,0,0,-0.1695,-0.1668,-0.1699,-0.1742,-0.1746,-0.1747,-0.1748,-0.1749,-0.182,-0.1822,-0.1824,-0.1825,-0.1869,-0.1869,-0.1869,-0.1831,0,0,-0.1869,-0.1869,0,0,0,0,0,0,0,0,-0.1694,-0.1696,-0.1735,-0.1739,-0.1744,-0.178,-0.1754,-0.1776,-0.1819,-0.1792,-0.1824,-0.1826,-0.1838,-0.184,-0.1845,-0.1833,-0.1835,-0.1869,-0.1869,-0.1869,-0.1869,0,0,0,0,0,0,0,-0.1692,-0.1695,-0.1718,-0.1736,-0.1741,-0.1758,-0.1764,-0.1758,-0.1803,-0.1794,-0.18,-0.1805,-0.184,-0.1845,-0.1847,-0.1836,-0.1869,-0.1869,-0.1869,-0.1869,-0.1796,-0.1795,0,0,0,0,0,0,-0.1684,-0.1693,-0.1717,-0.172,-0.1723,-0.1757,-0.1764,-0.1766,-0.1804,-0.1811,-0.1803,-0.1808,-0.1844,-0.1846,-0.1848,-0.1806,-0.1869,-0.1869,-0.1869,-0.1798,-0.1796,-0.1794,0,0,0,0,0,0,-0.1683,-0.1685,-0.1715,-0.1708,-0.1713,-0.1756,-0.1758,-0.1766,-0.1771,-0.181,-0.1818,-0.1799,-0.1845,-0.1848,-0.1835,-0.1809,-0.1869,-0.1869,-0.1801,-0.1798,-0.1795,-0.1721,0,0,0,0,0,0,-0.1682,-0.1685,-0.167,-0.1707,-0.1713,-0.1701,-0.1756,-0.1766,-0.1771,-0.1778,-0.1809,-0.1816,-0.1847,-0.1835,-0.1835,-0.181,-0.1869,-0.1803,-0.1799,-0.1796,-0.1726,-0.1716,-0.1707,0,0,0,0,0,-0.168,-0.1646,-0.1669,-0.1672,-0.1696,-0.1699,-0.1703,-0.1741,-0.1769,-0.1755,-0.1781,-0.1815,-0.1813,-0.1833,-0.1834,-0.1808,-0.1805,-0.18,-0.1796,-0.173,-0.1718,-0.1708,0,0,0,0,0,0,-0.1603,-0.1652,-0.1678,-0.1655,-0.1673,-0.1712,-0.1695,-0.1727,-0.1735,-0.1741,-0.1787,-0.1794,-0.1775,-0.1791,-0.1813,-0.1774,-0.1814,-0.181,-0.1763,-0.1752,-0.1743,-0.1738,-0.1869,0,0,0,0,0,-0.1584,-0.1583,-0.1626,-0.1601,-0.161,-0.1651,-0.1653,-0.1682,-0.1701,-0.1709,-0.1733,-0.175,-0.1754,-0.1754,-0.176,-0.173,-0.1738,-0.1713,-0.1704,-0.1696,-0.1691,-0.1677,-0.1666,-0.1779,-0.178,-0.178,0,0,-0.1543,-0.157,-0.1566,-0.1587,-0.1604,-0.1601,-0.1656,-0.1651,-0.1649,-0.1707,-0.1696,-0.1716,-0.1738,-0.1717,-0.1708,-0.1729,-0.1662,-0.1691,-0.1684,-0.1683,-0.1671,-0.166,-0.1651,-0.1777,-0.1777,-0.1778,0,0,-0.1467,-0.1488,-0.147,-0.1487,-0.1514,-0.1542,-0.1538,-0.1573,-0.1588,-0.1579,-0.1623,-0.1622,-0.1627,-0.1641,-0.1649,-0.1583,-0.1614,-0.1584,-0.1533,-0.1519,-0.151,-0.1503,-0.1478,-0.1469,-0.1579,-0.1579,-0.1579,0,-0.1412,-0.1411,-0.1457,-0.1449,-0.1457,-0.1513,-0.1495,-0.151,-0.1535,-0.1539,-0.1563,-0.1572,-0.1591,-0.1574,-0.1558,-0.1563,-0.1559,-0.1578,-0.1508,-0.1501,-0.1494,-0.1471,-0.1462,-0.1575,-0.1575,-0.1575,-0.1576,0,-0.1342,-0.1341,-0.1324,-0.1349,-0.1356,-0.1343,-0.1387,-0.1388,-0.1417,-0.1443,-0.1433,-0.1459,-0.147,-0.147,-0.1497,-0.1457,-0.1469,-0.15,-0.154,-0.1479,-0.1458,-0.1449,-0.1569,-0.157,-0.1571,-0.1572,0,0,-0.1214,-0.1269,-0.1261,-0.1274,-0.1309,-0.1309,-0.13,-0.1313,-0.1313,-0.1331,-0.1323,-0.1328,-0.1358,-0.1367,-0.1397,-0.1385,-0.1331,-0.1418,-0.142,-0.1399,-0.1288,-0.1262,-0.1251,-0.1354,-0.1352,-0.1351,-0.1285,0,-0.1143,-0.113,-0.1173,-0.1149,-0.1148,-0.1204,-0.1196,-0.1217,-0.1242,-0.1245,-0.1273,-0.1275,-0.1315,-0.1321,-0.1312,-0.1339,-0.1308,-0.1345,-0.1346,-0.1345,-0.1335,-0.124,-0.1212,-0.1148,-0.1277,-0.1276,-0.1275,0,-0.1057,-0.1072,-0.1048,-0.1087,-0.1088,-0.108,-0.1097,-0.11,-0.1125,-0.1145,-0.1157,-0.1193,-0.1187,-0.1229,-0.122,-0.1244,-0.1248,-0.1262,-0.1261,-0.1259,-0.1303,-0.1233,-0.1128,-0.1118,-0.1263,-0.1264,-0.1265,0,-0.0963,-0.0978,-0.0966,-0.0976,-0.1021,-0.1014,-0.1033,-0.106,-0.1067,-0.1082,-0.1086,-0.11,-0.1106,-0.1116,-0.1156,-0.1183,-0.1142,-0.1187,-0.1157,-0.1155,-0.1142,-0.1141,-0.1033,-0.1149,-0.115,-0.115,-0.115,0,-0.0877,-0.086,-0.0925,-0.0917,-0.09,-0.0951,-0.0932,-0.0956,-0.0981,-0.0979,-0.1029,-0.1025,-0.1079,-0.1082,-0.1113,-0.1101,-0.1104,-0.1118,-0.1126,-0.1112,-0.111,-0.1112,-0.1116,-0.1147,-0.1148,-0.1148,-0.1149,0,-0.0767,-0.0811,-0.0801,-0.0847,-0.0858,-0.0843,-0.0882,-0.0876,-0.0907,-0.0903,-0.0905,-0.0952,-0.0958,-0.1,-0.1015,-0.1036,-0.1012,-0.103,-0.1003,-0.1007,-0.0974,-0.0975,-0.086,-0.0847,-0.0974,-0.0973,-0.0972,0,-0.0708,-0.0696,-0.0742,-0.0745,-0.0761,-0.0765,-0.0773,-0.0824,-0.0829,-0.0859,-0.085,-0.0861,-0.0872,-0.0879,-0.0914,-0.0926,-0.0943,-0.0902,-0.0945,-0.0931,-0.094,-0.0938,-0.0937,-0.0891,-0.089,-0.0888,-0.0887,0,-0.0597,-0.062,-0.0629,-0.0647,-0.0655,-0.0671,-0.069,-0.0689,-0.0745,-0.0749,-0.0757,-0.0766,-0.0784,-0.0793,-0.0812,-0.0831,-0.0867,-0.0875,-0.0868,-0.0851,-0.0835,-0.0841,-0.0975,-0.0876,-0.0877,-0.0878,-0.0879,-0.0879,-0.0509,-0.0502,-0.0533,-0.0543,-0.0563,-0.058,-0.0578,-0.061,-0.0618,-0.0636,-0.0667,-0.067,-0.0698,-0.0728,-0.0744,-0.0748,-0.0769,-0.0759,-0.0757,-0.0752,-0.0744,-0.0838,-0.0752,-0.0752,-0.0753,-0.0753,-0.0753,0,-0.0399,-0.0423,-0.0432,-0.0458,-0.0465,-0.0504,-0.0528,-0.0531,-0.0534,-0.0558,-0.0569,-0.0579,-0.059,-0.0627,-0.0642,-0.0637,-0.0655,-0.0639,-0.0638,-0.0641,-0.0725,-0.0729,-0.0625,-0.0625,-0.0625,-0.0625,-0.0625,-0.0625,-0.0342,-0.0332,-0.0359,-0.036,-0.0385,-0.039,-0.04,-0.0416,-0.0436,-0.0445,-0.0455,-0.0481,-0.0511,-0.0528,-0.054,-0.0551,-0.0553,-0.0531,-0.0547,-0.0623,-0.0636,-0.0647,-0.0651,-0.0532,-0.0532,-0.0463,-0.0462,-0.0461]},{"header":{"parameterUnit":"m.s-1","parameterCategory":1,"la1":30.2991,"la2":30.254,"lo1":-89.0895,"lo2":-89.0444,"dy":0.0017,"dx":0.0017,"nx":28,"ny":28,"refTime":"2024-08-15T21:00:00:Z","depth":0,"parameterNumber":3,"parameterNumberName":"V-component_of_WINDS"},"data":[0,0,0,0,0,0,0,0,0,0,0,0,0,0,0,0,0,0,0,0,0,0,0,0,0,0,0,0,0,0,0,0,0,0,0,0,0,0,0,0,0,0,0,0,0,0,0,0,0,0,0,0,0,0,0,0,0,0,2.0095,2.0095,0,2.0086,2.0086,2.0086,2.0046,2.0045,2.0044,2.0043,2.0032,2.0032,2.0033,0,0,0,0,0,0,0,0,0,0,0,0,0,2.0073,2.0073,2.0095,2.0095,2.0095,2.0086,2.0086,2.0086,2.0046,2.0045,2.0043,2.0042,2.0032,2.0032,2.0033,0,0,0,0,0,0,0,0,0,0,0,0,0,2.0075,2.0074,2.0095,2.0074,2.0072,2.0086,2.0086,2.0086,2.0046,2.0045,2.0043,2.0042,2.0031,2.0032,2.0033,2.0067,0,0,2.0036,2.0036,0,0,0,0,0,0,0,0,2.0075,2.0076,2.0077,2.0075,2.0073,2.0066,2.0074,2.0079,2.0046,2.0056,2.0043,2.0041,2.0044,2.0044,2.0045,2.0066,2.0066,2.0036,2.0036,2.0037,2.0037,0,0,0,0,0,0,0,2.0075,2.0076,2.0091,2.0077,2.0074,2.0063,2.0062,2.0075,2.0058,2.0055,2.0052,2.0051,2.0043,2.0044,2.0045,2.0066,2.0036,2.0037,2.0037,2.0037,2.011,2.0111,0,0,0,0,0,0,2.0078,2.0076,2.0092,2.0091,2.0071,2.0065,2.0063,2.0069,2.0058,2.0054,2.0053,2.005,2.0044,2.0044,2.0044,2.0079,2.0037,2.0038,2.0038,2.0109,2.011,2.0112,0,0,0,0,0,0,2.0078,2.008,2.0092,2.0083,2.0083,2.0067,2.0074,2.007,2.0072,2.0056,2.0052,2.0058,2.0042,2.0043,2.0061,2.0079,2.0038,2.0039,2.0107,2.0109,2.0111,2.0153,0,0,0,0,0,0,2.0077,2.008,2.0094,2.0083,2.0084,2.011,2.0075,2.0071,2.0073,2.0069,2.006,2.0057,2.0041,2.006,2.0062,2.0079,2.0039,2.0105,2.0108,2.011,2.015,2.0156,2.0161,0,0,0,0,0,2.0077,2.0106,2.0095,2.0097,2.0101,2.0111,2.0111,2.0093,2.0075,2.0088,2.0077,2.0057,2.0077,2.0062,2.0064,2.0082,2.0104,2.0107,2.011,2.0147,2.0155,2.0161,0,0,0,0,0,0,2.0119,2.0105,2.0091,2.0119,2.0117,2.0104,2.012,2.0103,2.0105,2.0101,2.0078,2.0077,2.0097,2.0092,2.0075,2.0112,2.0087,2.009,2.0114,2.0121,2.0127,2.0127,2.004,0,0,0,0,0,2.0131,2.0142,2.0129,2.0154,2.0153,2.0137,2.0141,2.0127,2.0123,2.0122,2.0113,2.0109,2.0114,2.0118,2.0122,2.015,2.0145,2.0163,2.0169,2.0174,2.0176,2.0186,2.0193,2.0122,2.0122,2.0122,0,0,2.0157,2.0151,2.0159,2.0162,2.0159,2.0168,2.0136,2.0149,2.0154,2.0124,2.0139,2.0132,2.0127,2.0148,2.0158,2.0144,2.0195,2.0178,2.0182,2.0181,2.019,2.0197,2.0203,2.0124,2.0124,2.0123,0,0,2.0208,2.0206,2.0225,2.0222,2.0217,2.0205,2.021,2.02,2.0194,2.021,2.0186,2.0192,2.0203,2.0198,2.0198,2.0245,2.0225,2.0247,2.0277,2.0287,2.0293,2.0298,2.0311,2.0317,2.025,2.0251,2.0251,0,2.024,2.0254,2.0236,2.0249,2.025,2.0223,2.024,2.0238,2.0235,2.0235,2.0221,2.0231,2.0226,2.0244,2.0256,2.0258,2.026,2.0247,2.0294,2.0298,2.0302,2.0315,2.032,2.0253,2.0253,2.0252,2.0252,0,2.0292,2.0302,2.0318,2.0315,2.0318,2.0333,2.0316,2.0321,2.0307,2.0296,2.031,2.0303,2.0303,2.0308,2.0295,2.0323,2.0315,2.0298,2.0272,2.0312,2.0323,2.0328,2.0256,2.0256,2.0255,2.0254,0,0,2.0368,2.0354,2.036,2.0356,2.0349,2.0355,2.0368,2.0369,2.0372,2.0371,2.0379,2.0388,2.0371,2.037,2.0356,2.0366,2.0399,2.0347,2.0346,2.0354,2.0426,2.0437,2.0443,2.0387,2.0388,2.0389,2.0426,0,2.0413,2.0435,2.0418,2.0442,2.0449,2.0423,2.0434,2.043,2.042,2.0424,2.0413,2.0418,2.0398,2.0397,2.0405,2.0393,2.0413,2.0391,2.0392,2.0392,2.0391,2.045,2.0461,2.0496,2.043,2.0431,2.0432,0,2.0469,2.0469,2.0494,2.0481,2.0484,2.0494,2.0491,2.0497,2.049,2.0482,2.0481,2.0464,2.0473,2.045,2.0462,2.0447,2.0447,2.0441,2.0442,2.0439,2.0412,2.0445,2.0507,2.0511,2.0439,2.0439,2.0438,0,2.0517,2.0524,2.0538,2.0537,2.0524,2.0531,2.0526,2.0518,2.0519,2.0517,2.0517,2.0516,2.0515,2.0515,2.0497,2.0482,2.0509,2.0485,2.0501,2.0501,2.0505,2.0505,2.0566,2.0511,2.0511,2.0511,2.0511,0,2.0567,2.0582,2.0559,2.0567,2.0583,2.0563,2.0579,2.0571,2.0564,2.0569,2.0548,2.0553,2.0531,2.0533,2.052,2.0529,2.053,2.0522,2.0518,2.0522,2.0523,2.052,2.0515,2.0512,2.0512,2.0512,2.0511,0,2.0622,2.0608,2.0621,2.0608,2.0605,2.0616,2.0604,2.061,2.06,2.0606,2.0607,2.059,2.0591,2.0574,2.0573,2.0563,2.0578,2.0571,2.058,2.0576,2.0591,2.0589,2.065,2.0655,2.06,2.0601,2.0601,0,2.0653,2.0664,2.0651,2.0653,2.0649,2.0654,2.0654,2.0635,2.0636,2.0628,2.0635,2.0635,2.0633,2.0636,2.0623,2.0621,2.0611,2.0633,2.0611,2.0614,2.0608,2.0606,2.0605,2.0636,2.0637,2.0638,2.0638,0,2.0709,2.07,2.0702,2.07,2.0701,2.0699,2.0696,2.0698,2.0678,2.068,2.0681,2.068,2.0678,2.0677,2.0672,2.0665,2.0647,2.0646,2.0648,2.0652,2.0655,2.065,2.0589,2.0644,2.0643,2.0643,2.0642,2.0642,2.075,2.0757,2.0749,2.075,2.0746,2.0742,2.0747,2.0737,2.0738,2.0734,2.0723,2.0726,2.0717,2.0709,2.0704,2.0704,2.0693,2.0698,2.0699,2.07,2.0701,2.0658,2.0704,2.0703,2.0703,2.0703,2.0703,0,2.0801,2.0794,2.0796,2.0791,2.0792,2.0777,2.0772,2.0773,2.0776,2.0769,2.0768,2.0768,2.0767,2.0753,2.075,2.0753,2.0744,2.0752,2.075,2.0748,2.0713,2.0709,2.0759,2.0759,2.0759,2.0759,2.0759,2.0759,2.0827,2.0837,2.0828,2.0835,2.0828,2.0831,2.0829,2.0825,2.0819,2.0821,2.0819,2.0811,2.0801,2.0796,2.0794,2.079,2.0788,2.0798,2.0791,2.0757,2.0751,2.0746,2.0742,2.0799,2.0799,2.0826,2.0826,2.0827]}]]